Regional Weather Roundup
Issued by NWS

Home | Current Version | Previous Version | Text Only | Print | Product List | Glossary Off
Versions: 1 2 3 4 5 6 7 8 9 10 11 12 13 14 15 16 17 18 19 20 21 22 23 24 25 26 27 28 29 30 31 32 33 34 35 36 37 38 39 40 41 42 43 44 45 46 47 48 49 50

000
ASUS43 KIND 061359
RWRIN

WEATHER ROUNDUP FOR INDIANA
NATIONAL WEATHER SERVICE INDIANAPOLIS IN
900 AM EST SAT FEB 06 2016

NOTE: "FAIR" INDICATES FEW OR NO CLOUDS BELOW 12,000 FEET WITH NO
SIGNIFICANT WEATHER AND/OR OBSTRUCTIONS TO VISIBILITY.

* - STATION DOES NOT REPORT WEATHER SUCH AS PRECIPITATION OR FOG.

+ - STATION NOT QUALITY CONTROLLED BY THE NATIONAL WEATHER SERVICE.
    USE DATA WITH CAUTION...ESPECIALLY DEWPOINT AND RELATIVE
    HUMIDITY OBSERVATIONS.

INZ001>003-010>013-019-020-061500-
NORTHWEST INDIANA

CITY           SKY/WX    TMP DP  RH WIND       PRES   REMARKS
GARY /AIRPORT/ PTCLDY    28  23  80 S8        30.31S HAZE    WCI  20
RENSSELAER +   SUNNY     27  21  80 SW3       30.32S

$$

LMZ046-743>745-061500-
SOUTHERN LAKE MICHIGAN

STATION/POSITION TIME  TEMP    WIND        PRES    WAVE
                       AIR SEA DIR/SP/G            HT
                 (UTC) (F)     (DEG/KT/KT) (MB)    (FT)
BURNS HARBOR     1300   26     200/ 11/ 14 1026.1F
MICHIGAN CITY    1300   25     160/ 11/ 13   N/A

$$

INZ004-005-014>016-021>024-061500-
NORTH CENTRAL INDIANA

CITY           SKY/WX    TMP DP  RH WIND       PRES   REMARKS
GOSHEN         SUNNY     24  21  88 S8        30.29F FOG     WCI  15
PERU/GRISSOM   SUNNY     24  22  93 SW6       30.31R WCI  16
SOUTH BEND     SUNNY     23  21  92 SW8       30.30S FOG     WCI  14

$$

INZ006>009-017-018-025>027-061500-
NORTHEAST INDIANA

CITY           SKY/WX    TMP DP  RH WIND       PRES   REMARKS
ANGOLA *+      PTSUNNY   23  21  93 SW3       30.28F
FORT WAYNE     MOSUNNY   25  23  92 SW5       30.34R FOG     WCI  19

$$

INZ028-029-035-036-043>045-051>053-061500-
WEST CENTRAL INDIANA

CITY           SKY/WX    TMP DP  RH WIND       PRES   REMARKS
GREENCASTLE +  CLOUDY    25  19  80 CALM      30.34R HAZE
LAFAYETTE      CLOUDY    22  20  92 CALM      30.34S FOG
TERRE HAUTE    CLOUDY    26  23  88 CALM      30.35R

$$

INZ030>032-037>040-046>048-054>057-064-065-061500-
CENTRAL INDIANA

CITY           SKY/WX    TMP DP  RH WIND       PRES   REMARKS
ANDERSON       SUNNY     23  23 100 CALM      30.34  FOG
GREENWOOD *+   SUNNY     27  25  93 CALM      30.34R
INDIANAPOLIS   MOSUNNY   25  21  85 SW3       30.33R FOG
-EAGLE CREEK   SUNNY     24  22  91 CALM      30.33R
KOKOMO *+      SUNNY     25  19  80 SW5       30.33S WCI  19
MT COMFORT *+  SUNNY     25  23  93 S3        30.33S
SHELBYVILLE    SUNNY     26  24  92 CALM      30.34R FOG

$$

INZ033-034-041-042-049-050-058-059-061500-
EAST CENTRAL INDIANA

CITY           SKY/WX    TMP DP  RH WIND       PRES   REMARKS
MUNCIE         SUNNY     25  21  85 S5        30.32S FOG     WCI  19

$$

INZ060-061-067>069-081>083-085>088-061500-
SOUTHWEST INDIANA

CITY           SKY/WX    TMP DP  RH WIND       PRES   REMARKS
EVANSVILLE     PTSUNNY   32  26  78 CALM      30.36R
HUNTINGBURG *+ MOSUNNY   27  23  86 SE3       30.36R

$$

INZ062-063-066-070>080-084-089>092-061500-
SOUTH CENTRAL AND SOUTHEAST INDIANA

CITY           SKY/WX    TMP DP  RH WIND       PRES   REMARKS
BLOOMINGTON    SUNNY     25  22  88 CALM      30.34R FOG
MADISON *+     SUNNY     28  27  93 CALM      30.37S
SEYMOUR +      SUNNY     28  27  93 CALM      30.36R FOG

$$




USA.gov is the U.S. government's official web portal to all federal, state and local government web resources and services.